| time (UTC) | temp F | wind direction | speed knots | gust knots | rain 1hr in | rain 24hr in | rain mn in | humidity % | barometer mb |
| 20260507195516 | 68 | 317 | 10.4 | 17.4 | 0.00 | 0.00 | 0.00 | 28 | 1011.2 |
| 20260507195018 | 69 | 314 | 8.7 | 13.9 | 0.00 | 0.00 | 0.00 | 27 | 1011.3 |
| 20260507194614 | 68 | 352 | 10.4 | 18.2 | 0.00 | 0.00 | 0.00 | 28 | 1011.2 |
| 20260507194014 | 68 | 314 | 10.4 | 18.2 | 0.00 | 0.00 | 0.00 | 28 | 1011.3 |
| 20260507193514 | 68 | 344 | 11.3 | 19.1 | 0.00 | 0.00 | 0.00 | 28 | 1011.3 |
| 20260507193044 | 68 | 350 | 11.3 | 19.1 | 0.00 | 0.00 | 0.00 | 28 | 1011.5 |
| 20260507192519 | 68 | 340 | 8.7 | 15.6 | 0.00 | 0.00 | 0.00 | 29 | 1011.4 |
| 20260507192018 | 69 | 323 | 13.0 | 20.9 | 0.00 | 0.00 | 0.00 | 28 | 1011.4 |
| 20260507191533 | 69 | 344 | 10.4 | 20.9 | 0.00 | 0.00 | 0.00 | 28 | 1011.5 |
| 20260507191010 | 69 | 323 | 13.9 | 20.9 | 0.00 | 0.00 | 0.00 | 28 | 1011.4 |
| 20260507190520 | 70 | 346 | 13.0 | 17.4 | 0.00 | 0.00 | 0.00 | 28 | 1011.4 |
| 20260507190107 | 69 | 350 | 11.3 | 16.5 | 0.00 | 0.00 | 0.00 | 30 | 1011.6 |
| 20260507185517 | 68 | 313 | 12.2 | 18.2 | 0.00 | 0.00 | 0.00 | 30 | 1011.6 |
| 20260507185017 | 68 | 327 | 10.4 | 20.0 | 0.00 | 0.00 | 0.00 | 29 | 1011.8 |
| 20260507184609 | 69 | 329 | 11.3 | 16.5 | 0.00 | 0.00 | 0.00 | 29 | 1011.7 |
| 20260507184017 | 68 | 360 | 5.2 | 17.4 | 0.00 | 0.00 | 0.00 | 31 | 1011.7 |
| 20260507183521 | 68 | 332 | 13.0 | 17.4 | 0.00 | 0.00 | 0.00 | 31 | 1011.6 |
| 20260507183108 | 68 | 360 | 10.4 | 18.2 | 0.00 | 0.00 | 0.00 | 31 | 1011.9 |
| 20260507182519 | 68 | 352 | 13.9 | 18.2 | 0.00 | 0.00 | 0.00 | 30 | 1012.0 |
| 20260507182010 | 68 | 335 | 9.6 | 20.9 | 0.00 | 0.00 | 0.00 | 32 | 1011.9 |
| 20260507181620 | 69 | 332 | 15.6 | 20.9 | 0.00 | 0.00 | 0.00 | 32 | 1011.7 |
| 20260507181021 | 68 | 352 | 9.6 | 20.0 | 0.00 | 0.00 | 0.00 | 32 | 1012.1 |
| 20260507180516 | 68 | 331 | 13.9 | 20.0 | 0.00 | 0.00 | 0.00 | 33 | 1012.0 |
| 20260507180106 | 67 | 350 | 12.2 | 19.1 | 0.00 | 0.00 | 0.00 | 33 | 1012.0 |
| 20260507175522 | 67 | 346 | 9.6 | 18.2 | 0.00 | 0.00 | 0.00 | 34 | 1012.1 |
| 20260507175022 | 68 | 315 | 13.0 | 17.4 | 0.00 | 0.00 | 0.00 | 33 | 1012.0 |
| 20260507174607 | 67 | 324 | 12.2 | 20.0 | 0.00 | 0.00 | 0.00 | 34 | 1012.0 |
| 20260507174019 | 67 | 346 | 14.8 | 20.0 | 0.00 | 0.00 | 0.00 | 33 | 1012.0 |
| 20260507173523 | 67 | 347 | 13.0 | 19.1 | 0.00 | 0.00 | 0.00 | 35 | 1011.9 |
| 20260507173132 | 67 | 352 | 9.6 | 20.0 | 0.00 | 0.00 | 0.00 | 34 | 1012.1 |
| 20260507172515 | 67 | 360 | 13.0 | 20.0 | 0.00 | 0.00 | 0.00 | 34 | 1012.1 |
| 20260507172011 | 66 | 32 | 10.4 | 17.4 | 0.00 | 0.00 | 0.00 | 35 | 1012.3 |
| 20260507171611 | 66 | 323 | 12.2 | 16.5 | 0.00 | 0.00 | 0.00 | 34 | 1012.2 |
| 20260507171016 | 66 | 348 | 11.3 | 17.4 | 0.00 | 0.00 | 0.00 | 35 | 1012.2 |
| 20260507170635 | 66 | 342 | 11.3 | 17.4 | 0.00 | 0.00 | 0.00 | 36 | 1012.1 |
| 20260507170116 | 65 | 327 | 12.2 | 15.6 | 0.00 | 0.00 | 0.00 | 35 | 1012.1 |
| 20260507165520 | 66 | 17 | 3.5 | 12.2 | 0.00 | 0.00 | 0.00 | 35 | 1012.2 |
| 20260507165017 | 65 | 331 | 5.2 | 12.2 | 0.00 | 0.00 | 0.00 | 36 | 1012.1 |
| 20260507164610 | 66 | 336 | 9.6 | 12.2 | 0.00 | 0.00 | 0.00 | 35 | 1012.2 |
| 20260507164024 | 65 | 5 | 5.2 | 11.3 | 0.00 | 0.00 | 0.00 | 36 | 1012.4 |
| 20260507163524 | 64 | 32 | 6.1 | 11.3 | 0.00 | 0.00 | 0.00 | 37 | 1012.3 |
| 20260507163048 | 63 | 40 | 1.7 | 8.7 | 0.00 | 0.00 | 0.00 | 36 | 1012.4 |
| 20260507162521 | 62 | 352 | 5.2 | 8.7 | 0.00 | 0.00 | 0.00 | 37 | 1012.4 |
| 20260507162024 | 62 | 78 | 0.9 | 5.2 | 0.00 | 0.00 | 0.00 | 36 | 1012.3 |
| 20260507161556 | 61 | 294 | 0.0 | 7.8 | 0.00 | 0.00 | 0.00 | 37 | 1012.5 |
| 20260507161016 | 61 | 350 | 2.6 | 8.7 | 0.00 | 0.00 | 0.00 | 37 | 1012.5 |
| 20260507160517 | 61 | 280 | 3.5 | 8.7 | 0.00 | 0.00 | 0.00 | 37 | 1012.4 |
| 20260507160045 | 60 | 295 | 2.6 | 7.0 | 0.00 | 0.00 | 0.00 | 37 | 1012.6 |
| 20260507155517 | 59 | 252 | 0.9 | 8.7 | 0.00 | 0.00 | 0.00 | 38 | 1012.6 |
| 20260507155016 | 59 | 284 | 3.5 | 8.7 | 0.00 | 0.00 | 0.00 | 37 | 1012.6 |
| 20260507154545 | 58 | 268 | 1.7 | 6.1 | 0.00 | 0.00 | 0.00 | 38 | 1012.5 |
| 20260507154027 | 57 | 277 | 2.6 | 6.1 | 0.00 | 0.00 | 0.00 | 36 | 1012.6 |
| 20260507153514 | 57 | 297 | 0.9 | 7.0 | 0.00 | 0.00 | 0.00 | 36 | 1012.7 |
| 20260507153059 | 56 | 306 | 1.7 | 7.8 | 0.00 | 0.00 | 0.00 | 36 | 1012.7 |
| 20260507152522 | 55 | 257 | 5.2 | 7.8 | 0.00 | 0.00 | 0.00 | 37 | 1012.7 |
| 20260507152010 | 54 | 219 | 1.7 | 5.2 | 0.00 | 0.00 | 0.00 | 36 | 1012.7 |
| 20260507151551 | 53 | 202 | 0.9 | 5.2 | 0.00 | 0.00 | 0.00 | 36 | 1012.3 |
| 20260507151018 | 52 | 245 | 1.7 | 4.3 | 0.00 | 0.00 | 0.00 | 36 | 1012.6 |
| 20260507150518 | 52 | 245 | 1.7 | 4.3 | 0.00 | 0.00 | 0.00 | 37 | 1012.7 |
| 20260507150059 | 51 | 245 | 1.7 | 5.2 | 0.00 | 0.00 | 0.00 | 39 | 1012.6 |
| 20260507145519 | 50 | 241 | 4.3 | 5.2 | 0.00 | 0.00 | 0.00 | 35 | 1012.5 |
| 20260507145012 | 50 | 254 | 3.5 | 6.1 | 0.00 | 0.00 | 0.00 | 34 | 1012.5 |
| 20260507144548 | 49 | 266 | 2.6 | 4.3 | 0.00 | 0.00 | 0.00 | 36 | 1012.7 |
| 20260507144020 | 49 | 291 | 3.5 | 6.1 | 0.00 | 0.00 | 0.00 | 37 | 1012.7 |
| 20260507143523 | 49 | 267 | 3.5 | 6.1 | 0.00 | 0.00 | 0.00 | 39 | 1012.8 |
| 20260507143051 | 48 | 284 | 3.5 | 6.1 | 0.00 | 0.00 | 0.00 | 38 | 1012.6 |
| 20260507142510 | 47 | 234 | 2.6 | 5.2 | 0.00 | 0.00 | 0.00 | 39 | 1012.5 |
| 20260507142019 | 47 | 281 | 3.5 | 5.2 | 0.00 | 0.00 | 0.00 | 39 | 1012.7 |
| 20260507141612 | 47 | 308 | 1.7 | 4.3 | 0.00 | 0.00 | 0.00 | 40 | 1012.6 |
| 20260507141014 | 47 | 308 | 2.6 | 4.3 | 0.00 | 0.00 | 0.00 | 40 | 1012.7 |
| 20260507140515 | 46 | 308 | 2.6 | 4.3 | 0.00 | 0.00 | 0.00 | 40 | 1012.6 |
| 20260507140042 | 46 | 252 | 1.7 | 4.3 | 0.00 | 0.00 | 0.00 | 40 | 1012.6 |
| 20260507135518 | 46 | 331 | 2.6 | 5.2 | 0.00 | 0.00 | 0.00 | 40 | 1012.5 |
| 20260507135023 | 46 | 314 | 3.5 | 7.8 | 0.00 | 0.00 | 0.00 | 41 | 1012.6 |
| 20260507134603 | 46 | 325 | 4.3 | 7.8 | 0.00 | 0.00 | 0.00 | 42 | 1012.6 |
| 20260507134025 | 46 | 330 | 4.3 | 7.0 | 0.00 | 0.00 | 0.00 | 41 | 1012.6 |
| 20260507133648 | 46 | 349 | 4.3 | 7.0 | 0.00 | 0.00 | 0.00 | 40 | 1012.4 |
| 20260507133039 | 46 | 341 | 4.3 | 5.2 | 0.00 | 0.00 | 0.00 | 40 | 1012.1 |
| 20260507132521 | 46 | 336 | 2.6 | 4.3 | 0.00 | 0.00 | 0.00 | 41 | 1012.6 |
| 20260507132015 | 45 | 314 | 1.7 | 3.5 | 0.00 | 0.00 | 0.00 | 42 | 1012.5 |
| 20260507131540 | 45 | 311 | 1.7 | 3.5 | 0.00 | 0.00 | 0.00 | 43 | 1012.4 |
| 20260507131016 | 45 | 294 | 1.7 | 4.3 | 0.00 | 0.00 | 0.00 | 46 | 1012.5 |
| 20260507130648 | 45 | 294 | 2.6 | 4.3 | 0.00 | 0.00 | 0.00 | 45 | 1012.4 |
| 20260507130643 | 44 | 299 | 1.7 | 4.3 | 0.00 | 0.00 | 0.00 | 43 | 1012.2 |
| 20260507125519 | 44 | 316 | 1.7 | 4.3 | 0.00 | 0.00 | 0.00 | 44 | 1012.0 |
| 20260507125007 | 44 | 294 | 2.6 | 4.3 | 0.00 | 0.00 | 0.00 | 45 | 1012.2 |
| 20260507124559 | 44 | 306 | 2.6 | 4.3 | 0.00 | 0.00 | 0.00 | 46 | 1012.0 |
| 20260507124017 | 44 | 288 | 1.7 | 5.2 | 0.00 | 0.00 | 0.00 | 46 | 1011.7 |
| 20260507123515 | 43 | 284 | 2.6 | 4.3 | 0.00 | 0.00 | 0.00 | 46 | 1011.7 |
| 20260507123100 | 43 | 312 | 1.7 | 3.5 | 0.00 | 0.00 | 0.00 | 46 | 1011.6 |
| 20260507122517 | 43 | 321 | 1.7 | 3.5 | 0.00 | 0.00 | 0.00 | 46 | 1011.5 |
| 20260507122018 | 43 | 321 | 1.7 | 3.5 | 0.00 | 0.00 | 0.00 | 46 | 1011.4 |
| 20260507121549 | 43 | 279 | 1.7 | 4.3 | 0.00 | 0.00 | 0.00 | 46 | 1011.5 |
| 20260507121016 | 43 | 275 | 2.6 | 4.3 | 0.00 | 0.00 | 0.00 | 46 | 1011.5 |
| 20260507120515 | 42 | 284 | 2.6 | 4.3 | 0.00 | 0.00 | 0.00 | 49 | 1011.7 |
| 20260507120039 | 42 | 300 | 2.6 | 3.5 | 0.00 | 0.00 | 0.00 | 50 | 1011.9 |
| 20260507115516 | 42 | 355 | 1.7 | 4.3 | 0.00 | 0.00 | 0.00 | 52 | 1012.0 |
| 20260507115014 | 41 | 355 | 2.6 | 4.3 | 0.00 | 0.00 | 0.00 | 54 | 1011.8 |
| 20260507114536 | 41 | 59 | 0.9 | 1.7 | 0.00 | 0.00 | 0.00 | 55 | 1011.6 |
| 20260507114014 | 41 | 59 | 0.9 | 2.6 | 0.00 | 0.00 | 0.00 | 54 | 1011.6 |
| 20260507113516 | 41 | 59 | 1.7 | 2.6 | 0.00 | 0.00 | 0.00 | 54 | 1011.3 |
| 20260507113045 | 41 | 59 | 1.7 | 3.5 | 0.00 | 0.00 | 0.00 | 54 | 1011.3 |
| 20260507112515 | 41 | 59 | 1.7 | 4.3 | 0.00 | 0.00 | 0.00 | 55 | 1011.3 |
| 20260507112016 | 42 | 260 | 1.7 | 4.3 | 0.00 | 0.00 | 0.00 | 56 | 1011.0 |
| 20260507111537 | 42 | 360 | 1.7 | 7.8 | 0.00 | 0.00 | 0.00 | 55 | 1010.9 |
| 20260507111015 | 41 | 283 | 3.5 | 7.8 | 0.00 | 0.00 | 0.00 | 56 | 1010.8 |
| 20260507110514 | 42 | 248 | 6.1 | 8.7 | 0.00 | 0.00 | 0.00 | 56 | 1010.9 |
| 20260507110040 | 41 | 277 | 5.2 | 8.7 | 0.00 | 0.00 | 0.00 | 56 | 1010.6 |
| 20260507105515 | 41 | 277 | 4.3 | 7.0 | 0.00 | 0.00 | 0.00 | 56 | 1010.5 |
| 20260507105012 | 41 | 254 | 4.3 | 7.8 | 0.00 | 0.00 | 0.00 | 55 | 1010.5 |
| 20260507104539 | 41 | 254 | 6.1 | 7.8 | 0.00 | 0.00 | 0.00 | 54 | 1010.3 |
| 20260507104015 | 42 | 260 | 6.1 | 7.8 | 0.00 | 0.00 | 0.00 | 53 | 1010.1 |
| 20260507103529 | 42 | 263 | 6.1 | 7.8 | 0.00 | 0.00 | 0.00 | 52 | 1010.0 |
| 20260507103058 | 42 | 289 | 6.1 | 7.8 | 0.00 | 0.00 | 0.00 | 51 | 1010.1 |
| 20260507102514 | 42 | 281 | 6.1 | 7.0 | 0.00 | 0.00 | 0.00 | 51 | 1010.1 |
| 20260507102017 | 42 | 283 | 4.3 | 7.0 | 0.00 | 0.00 | 0.00 | 51 | 1010.0 |
| 20260507101545 | 41 | 267 | 6.1 | 7.0 | 0.00 | 0.00 | 0.00 | 51 | 1010.1 |
| 20260507101024 | 41 | 280 | 3.5 | 7.8 | 0.00 | 0.00 | 0.00 | 51 | 1010.1 |
| 20260507100515 | 41 | 287 | 5.2 | 7.8 | 0.00 | 0.00 | 0.00 | 51 | 1010.1 |
| 20260507100043 | 41 | 307 | 4.3 | 7.0 | 0.00 | 0.00 | 0.00 | 51 | 1010.2 |
| 20260507095514 | 41 | 301 | 5.2 | 7.0 | 0.00 | 0.00 | 0.00 | 52 | 1010.1 |
| 20260507095016 | 41 | 283 | 5.2 | 7.0 | 0.00 | 0.00 | 0.00 | 52 | 1010.1 |
| 20260507094553 | 42 | 275 | 3.5 | 6.1 | 0.00 | 0.00 | 0.00 | 51 | 1010.1 |
| 20260507094022 | 42 | 273 | 3.5 | 6.1 | 0.00 | 0.00 | 0.00 | 51 | 1010.2 |
| 20260507093522 | 42 | 267 | 4.3 | 6.1 | 0.00 | 0.00 | 0.00 | 51 | 1010.2 |
| 20260507093053 | 43 | 250 | 3.5 | 4.3 | 0.00 | 0.00 | 0.00 | 49 | 1010.0 |
| 20260507092513 | 43 | 273 | 4.3 | 5.2 | 0.00 | 0.00 | 0.00 | 49 | 1010.1 |
| 20260507092023 | 44 | 328 | 2.6 | 3.5 | 0.00 | 0.00 | 0.00 | 48 | 1009.9 |
| 20260507091546 | 43 | 328 | 2.6 | 3.5 | 0.00 | 0.00 | 0.00 | 49 | 1010.0 |
| 20260507091017 | 43 | 328 | 1.7 | 2.6 | 0.00 | 0.00 | 0.00 | 49 | 1010.0 |
| 20260507090516 | 43 | 328 | 1.7 | 2.6 | 0.00 | 0.00 | 0.00 | 48 | 1010.2 |
| 20260507090047 | 44 | 328 | 1.7 | 2.6 | 0.00 | 0.00 | 0.00 | 48 | 1010.1 |
| 20260507085514 | 44 | 328 | 1.7 | 2.6 | 0.00 | 0.00 | 0.00 | 47 | 1009.9 |
| 20260507085019 | 44 | 317 | 1.7 | 3.5 | 0.00 | 0.00 | 0.00 | 46 | 1010.0 |
| 20260507084548 | 45 | 317 | 1.7 | 4.3 | 0.00 | 0.00 | 0.00 | 45 | 1010.0 |
| 20260507084014 | 46 | 311 | 2.6 | 4.3 | 0.00 | 0.00 | 0.00 | 44 | 1009.8 |
| 20260507083516 | 46 | 13 | 1.7 | 5.2 | 0.00 | 0.00 | 0.00 | 44 | 1009.7 |
| 20260507083042 | 47 | 5 | 2.6 | 5.2 | 0.00 | 0.00 | 0.00 | 44 | 1009.7 |
| 20260507082518 | 47 | 347 | 3.5 | 7.8 | 0.00 | 0.00 | 0.00 | 43 | 1010.1 |
| 20260507082016 | 47 | 352 | 3.5 | 7.8 | 0.00 | 0.00 | 0.00 | 43 | 1009.8 |
| 20260507081545 | 48 | 17 | 4.3 | 6.1 | 0.00 | 0.00 | 0.00 | 43 | 1009.8 |
| 20260507081014 | 48 | 360 | 0.0 | 3.5 | 0.00 | 0.00 | 0.00 | 42 | 1009.7 |
| 20260507080507 | 48 | 137 | 0.0 | 2.6 | 0.00 | 0.00 | 0.00 | 42 | 1009.6 |
| 20260507080500 | 47 | 138 | 1.7 | 2.6 | 0.00 | 0.00 | 0.00 | 42 | 1009.3 |
| 20260507075528 | 47 | 112 | 1.7 | 2.6 | 0.00 | 0.00 | 0.00 | 43 | 1009.3 |
| 20260507075022 | 47 | 112 | 0.9 | 2.6 | 0.00 | 0.00 | 0.00 | 43 | 1009.4 |
| 20260507074551 | 47 | 112 | 1.7 | 3.5 | 0.00 | 0.00 | 0.00 | 43 | 1009.3 |
| 20260507074021 | 47 | 112 | 1.7 | 3.5 | 0.00 | 0.00 | 0.00 | 43 | 1009.6 |
| 20260507073520 | 47 | 112 | 2.6 | 3.5 | 0.00 | 0.00 | 0.00 | 42 | 1009.4 |
| 20260507073107 | 47 | 112 | 1.7 | 5.2 | 0.00 | 0.00 | 0.00 | 40 | 1009.4 |
| 20260507072519 | 48 | 113 | 3.5 | 5.2 | 0.00 | 0.00 | 0.00 | 39 | 1009.3 |
| 20260507072020 | 49 | 119 | 2.6 | 5.2 | 0.00 | 0.00 | 0.00 | 38 | 1009.4 |
| 20260507071549 | 50 | 94 | 2.6 | 7.0 | 0.00 | 0.00 | 0.00 | 36 | 1009.3 |
| 20260507071021 | 50 | 83 | 4.3 | 7.0 | 0.00 | 0.00 | 0.00 | 35 | 1009.5 |
| 20260507070522 | 51 | 71 | 4.3 | 7.0 | 0.00 | 0.00 | 0.00 | 36 | 1009.4 |
| 20260507070048 | 51 | 74 | 4.3 | 7.0 | 0.00 | 0.00 | 0.00 | 36 | 1009.3 |
| 20260507065521 | 51 | 101 | 1.7 | 3.5 | 0.00 | 0.00 | 0.00 | 36 | 1009.4 |
| 20260507065019 | 52 | 74 | 1.7 | 3.5 | 0.00 | 0.00 | 0.00 | 36 | 1009.3 |
| 20260507064604 | 52 | 134 | 2.6 | 3.5 | 0.00 | 0.00 | 0.00 | 36 | 1009.1 |
| 20260507064018 | 52 | 134 | 0.0 | 4.3 | 0.00 | 0.00 | 0.00 | 38 | 1009.4 |
| 20260507063515 | 52 | 134 | 0.9 | 4.3 | 0.00 | 0.00 | 0.00 | 39 | 1009.2 |
| 20260507063046 | 53 | 134 | 2.6 | 3.5 | 0.00 | 0.00 | 0.00 | 37 | 1009.1 |
| 20260507062519 | 53 | 84 | 0.9 | 3.5 | 0.00 | 0.00 | 0.00 | 36 | 1009.3 |
| 20260507062016 | 54 | 89 | 1.7 | 5.2 | 0.00 | 0.00 | 0.00 | 35 | 1009.4 |
| 20260507061549 | 54 | 96 | 2.6 | 5.2 | 0.00 | 0.00 | 0.00 | 33 | 1009.4 |
| 20260507061016 | 54 | 77 | 1.7 | 9.6 | 0.00 | 0.00 | 0.00 | 33 | 1009.2 |
| 20260507060529 | 54 | 76 | 4.3 | 9.6 | 0.00 | 0.00 | 0.00 | 32 | 1009.2 |
| 20260507060056 | 53 | 63 | 4.3 | 12.2 | 0.00 | 0.00 | 0.00 | 33 | 1009.2 |
| 20260507055516 | 54 | 70 | 8.7 | 13.0 | 0.00 | 0.00 | 0.00 | 32 | 1008.9 |
| 20260507055016 | 54 | 71 | 9.6 | 13.0 | 0.00 | 0.00 | 0.00 | 32 | 1008.7 |
| 20260507054556 | 55 | 69 | 7.0 | 15.6 | 0.00 | 0.00 | 0.00 | 31 | 1008.7 |
| 20260507054014 | 57 | 59 | 9.6 | 16.5 | 0.00 | 0.00 | 0.00 | 32 | 1008.5 |
| 20260507053530 | 58 | 67 | 12.2 | 20.0 | 0.00 | 0.00 | 0.00 | 31 | 1008.4 |
| 20260507053053 | 58 | 67 | 12.2 | 16.5 | 0.00 | 0.00 | 0.00 | 32 | 1008.5 |
| 20260507052513 | 57 | 65 | 7.0 | 11.3 | 0.00 | 0.00 | 0.00 | 34 | 1009.0 |
| 20260507052017 | 56 | 81 | 1.7 | 8.7 | 0.00 | 0.00 | 0.00 | 35 | 1009.0 |
| 20260507051602 | 57 | 117 | 3.5 | 9.6 | 0.00 | 0.00 | 0.00 | 34 | 1008.9 |
| 20260507051017 | 56 | 115 | 6.1 | 9.6 | 0.00 | 0.00 | 0.00 | 40 | 1008.4 |
| 20260507050516 | 54 | 155 | 4.3 | 7.8 | 0.00 | 0.00 | 0.00 | 40 | 1008.3 |
| 20260507050111 | 56 | 165 | 4.3 | 8.7 | 0.00 | 0.00 | 0.00 | 39 | 1008.5 |
| 20260507045514 | 57 | 112 | 5.2 | 12.2 | 0.00 | 0.00 | 0.00 | 32 | 1008.6 |
| 20260507045010 | 56 | 88 | 8.7 | 12.2 | 0.00 | 0.00 | 0.00 | 33 | 1008.7 |
| 20260507044609 | 56 | 109 | 4.3 | 8.7 | 0.00 | 0.00 | 0.00 | 35 | 1008.9 |
| 20260507044017 | 56 | 95 | 7.0 | 8.7 | 0.00 | 0.00 | 0.00 | 32 | 1008.8 |
| 20260507043514 | 56 | 100 | 2.6 | 6.1 | 0.00 | 0.00 | 0.00 | 31 | 1008.9 |
| 20260507043119 | 56 | 92 | 3.5 | 6.1 | 0.00 | 0.00 | 0.00 | 30 | 1008.6 |
| 20260507042517 | 56 | 88 | 5.2 | 7.0 | 0.00 | 0.00 | 0.00 | 30 | 1008.5 |
| 20260507042016 | 56 | 99 | 3.5 | 7.0 | 0.00 | 0.00 | 0.00 | 30 | 1008.7 |
| 20260507041616 | 55 | 124 | 2.6 | 5.2 | 0.00 | 0.00 | 0.00 | 30 | 1008.8 |
| 20260507041029 | 55 | 164 | 3.5 | 5.2 | 0.00 | 0.00 | 0.00 | 30 | 1008.8 |
| 20260507040527 | 55 | 188 | 3.5 | 5.2 | 0.00 | 0.00 | 0.00 | 30 | 1008.6 |
| 20260507040106 | 56 | 154 | 2.6 | 4.3 | 0.00 | 0.00 | 0.00 | 30 | 1008.6 |
| 20260507035523 | 56 | 124 | 2.6 | 6.1 | 0.00 | 0.00 | 0.00 | 30 | 1008.5 |
| 20260507035017 | 56 | 117 | 2.6 | 6.1 | 0.00 | 0.00 | 0.00 | 30 | 1008.5 |
| 20260507034543 | 55 | 119 | 2.6 | 5.2 | 0.00 | 0.00 | 0.00 | 30 | 1008.3 |
| 20260507034027 | 55 | 122 | 2.6 | 5.2 | 0.00 | 0.00 | 0.00 | 31 | 1008.3 |
| 20260507033518 | 54 | 75 | 3.5 | 4.3 | 0.00 | 0.00 | 0.00 | 32 | 1008.2 |
| 20260507033108 | 54 | 90 | 2.6 | 3.5 | 0.00 | 0.00 | 0.00 | 32 | 1008.1 |
| 20260507032523 | 54 | 140 | 1.7 | 2.6 | 0.00 | 0.00 | 0.00 | 31 | 1007.9 |
| 20260507032015 | 55 | 140 | 1.7 | 2.6 | 0.00 | 0.00 | 0.00 | 31 | 1007.9 |
| 20260507031613 | 55 | 140 | 1.7 | 3.5 | 0.00 | 0.00 | 0.00 | 31 | 1007.9 |
| 20260507031019 | 55 | 140 | 2.6 | 4.3 | 0.00 | 0.00 | 0.00 | 30 | 1007.6 |
| 20260507030518 | 55 | 140 | 2.6 | 4.3 | 0.00 | 0.00 | 0.00 | 30 | 1007.7 |
| 20260507030050 | 55 | 135 | 3.5 | 4.3 | 0.00 | 0.00 | 0.00 | 29 | 1007.7 |
| 20260507025517 | 55 | 113 | 3.5 | 5.2 | 0.00 | 0.00 | 0.00 | 29 | 1007.7 |
| 20260507025019 | 56 | 124 | 3.5 | 6.1 | 0.00 | 0.00 | 0.00 | 29 | 1007.5 |
| 20260507024557 | 56 | 134 | 3.5 | 8.7 | 0.00 | 0.00 | 0.00 | 29 | 1007.6 |
| 20260507024017 | 56 | 131 | 6.1 | 8.7 | 0.00 | 0.00 | 0.00 | 30 | 1007.6 |
| 20260507023518 | 57 | 136 | 2.6 | 3.5 | 0.00 | 0.00 | 0.00 | 29 | 1007.7 |
| 20260507023040 | 57 | 103 | 2.6 | 3.5 | 0.00 | 0.00 | 0.00 | 28 | 1007.8 |
| 20260507022516 | 58 | 103 | 2.6 | 3.5 | 0.00 | 0.00 | 0.00 | 28 | 1007.8 |
| 20260507022014 | 58 | 103 | 1.7 | 3.5 | 0.00 | 0.00 | 0.00 | 28 | 1008.0 |
| 20260507021540 | 59 | 103 | 1.7 | 3.5 | 0.00 | 0.00 | 0.00 | 29 | 1007.8 |
| 20260507021017 | 60 | 103 | 1.7 | 3.5 | 0.00 | 0.00 | 0.00 | 28 | 1007.8 |
| 20260507020514 | 61 | 103 | 1.7 | 3.5 | 0.00 | 0.00 | 0.00 | 27 | 1007.5 |
| 20260507020045 | 62 | 103 | 1.7 | 3.5 | 0.00 | 0.00 | 0.00 | 26 | 1007.7 |
| 20260507015512 | 63 | 103 | 1.7 | 5.2 | 0.00 | 0.00 | 0.00 | 25 | 1007.5 |
| 20260507015015 | 64 | 101 | 3.5 | 5.2 | 0.00 | 0.00 | 0.00 | 24 | 1007.7 |
| 20260507014535 | 66 | 80 | 1.7 | 5.2 | 0.00 | 0.00 | 0.00 | 21 | 1007.7 |
| 20260507014016 | 66 | 80 | 3.5 | 7.0 | 0.00 | 0.00 | 0.00 | 21 | 1007.9 |
| 20260507013515 | 67 | 79 | 4.3 | 7.0 | 0.00 | 0.00 | 0.00 | 20 | 1007.7 |
| 20260507013115 | 68 | 54 | 4.3 | 6.1 | 0.00 | 0.00 | 0.00 | 19 | 1007.7 |
| 20260507012515 | 70 | 53 | 3.5 | 5.2 | 0.00 | 0.00 | 0.00 | 18 | 1007.9 |
| 20260507012016 | 70 | 15 | 2.6 | 7.0 | 0.00 | 0.00 | 0.00 | 18 | 1007.7 |
| 20260507011606 | 70 | 22 | 1.7 | 7.8 | 0.00 | 0.00 | 0.00 | 19 | 1007.9 |
| 20260507011015 | 70 | 13 | 5.2 | 7.8 | 0.00 | 0.00 | 0.00 | 18 | 1007.9 |
| 20260507010521 | 70 | 41 | 2.6 | 7.0 | 0.00 | 0.00 | 0.00 | 18 | 1007.9 |
| 20260507005516 | 70 | 32 | 2.6 | 6.1 | 0.00 | 0.00 | 0.00 | 18 | 1007.9 |
| 20260507005015 | 71 | 14 | 0.9 | 7.8 | 0.00 | 0.00 | 0.00 | 18 | 1007.9 |
| 20260507004835 | 70 | 19 | 4.3 | 8.7 | 0.00 | 0.00 | 0.00 | 18 | 1008.0 |
| 20260507004016 | 71 | 5 | 6.1 | 8.7 | 0.00 | 0.00 | 0.00 | 18 | 1008.1 |
| 20260507003516 | 70 | 37 | 3.5 | 8.7 | 0.00 | 0.00 | 0.00 | 18 | 1008.0 |
| 20260507003436 | 70 | 36 | 3.5 | 9.6 | 0.00 | 0.00 | 0.00 | 18 | 1008.0 |
| 20260507002522 | 70 | 360 | 6.1 | 11.3 | 0.00 | 0.00 | 0.00 | 18 | 1008.1 |
| 20260507002029 | 69 | 45 | 6.1 | 8.7 | 0.00 | 0.00 | 0.00 | 19 | 1008.1 |
| 20260507001831 | 69 | 65 | 3.5 | 8.7 | 0.00 | 0.00 | 0.00 | 18 | 1008.2 |
| 20260507001022 | 69 | 5 | 5.2 | 8.7 | 0.00 | 0.00 | 0.00 | 18 | 1008.2 |
| 20260507000522 | 69 | 32 | 5.2 | 9.6 | 0.00 | 0.00 | 0.00 | 18 | 1008.2 |
| 20260507000315 | 70 | 29 | 2.6 | 7.8 | 0.00 | 0.00 | 0.00 | 18 | 1008.4 |
| 20260506235519 | 70 | 62 | 2.6 | 9.6 | 0.00 | 0.00 | 0.00 | 18 | 1008.4 |
| 20260506235021 | 70 | 59 | 2.6 | 9.6 | 0.00 | 0.00 | 0.00 | 18 | 1008.4 |
| 20260506234609 | 71 | 38 | 3.5 | 12.2 | 0.00 | 0.00 | 0.00 | 17 | 1008.5 |
| 20260506234019 | 70 | 5 | 6.1 | 11.3 | 0.00 | 0.00 | 0.00 | 18 | 1008.4 |
| 20260506233604 | 70 | 32 | 5.2 | 13.0 | 0.00 | 0.00 | 0.00 | 17 | 1008.5 |
| 20260506233044 | 70 | 15 | 9.6 | 13.0 | 0.00 | 0.00 | 0.00 | 17 | 1008.5 |
| 20260506232514 | 70 | 5 | 9.6 | 13.0 | 0.00 | 0.00 | 0.00 | 17 | 1008.5 |
| 20260506232017 | 70 | 305 | 6.1 | 12.2 | 0.00 | 0.00 | 0.00 | 17 | 1008.4 |
| 20260506231539 | 69 | 272 | 4.3 | 12.2 | 0.00 | 0.00 | 0.00 | 18 | 1008.8 |
| 20260506231018 | 69 | 303 | 7.0 | 12.2 | 0.00 | 0.00 | 0.00 | 17 | 1008.7 |
| 20260506230519 | 69 | 308 | 2.6 | 11.3 | 0.00 | 0.00 | 0.00 | 18 | 1008.8 |
| 20260506230129 | 69 | 246 | 7.0 | 12.2 | 0.00 | 0.00 | 0.00 | 18 | 1009.1 |
| 20260506225519 | 69 | 297 | 7.0 | 14.8 | 0.00 | 0.00 | 0.00 | 18 | 1009.2 |
| 20260506225016 | 69 | 304 | 4.3 | 14.8 | 0.00 | 0.00 | 0.00 | 17 | 1009.2 |
| 20260506224627 | 69 | 281 | 9.6 | 13.9 | 0.00 | 0.00 | 0.00 | 17 | 1009.0 |
| 20260506224015 | 68 | 295 | 5.2 | 11.3 | 0.00 | 0.00 | 0.00 | 17 | 1009.3 |
| 20260506223517 | 69 | 340 | 8.7 | 12.2 | 0.00 | 0.00 | 0.00 | 17 | 1009.3 |
| 20260506223130 | 68 | 332 | 8.7 | 12.2 | 0.00 | 0.00 | 0.00 | 18 | 1009.4 |
| 20260506222517 | 68 | 288 | 3.5 | 7.8 | 0.00 | 0.00 | 0.00 | 18 | 1009.7 |
| 20260506222018 | 68 | 61 | 1.7 | 11.3 | 0.00 | 0.00 | 0.00 | 18 | 1009.8 |
| 20260506221615 | 67 | 350 | 3.5 | 10.4 | 0.00 | 0.00 | 0.00 | 18 | 1009.9 |
| 20260506221022 | 67 | 298 | 6.1 | 12.2 | 0.00 | 0.00 | 0.00 | 19 | 1010.1 |
| 20260506220522 | 67 | 302 | 7.0 | 13.9 | 0.00 | 0.00 | 0.00 | 18 | 1010.1 |
| 20260506220110 | 67 | 305 | 8.7 | 13.9 | 0.00 | 0.00 | 0.00 | 18 | 1010.0 |
| 20260506215517 | 67 | 343 | 7.0 | 11.3 | 0.00 | 0.00 | 0.00 | 18 | 1010.1 |
| 20260506215019 | 66 | 288 | 6.1 | 12.2 | 0.00 | 0.00 | 0.00 | 19 | 1010.2 |
| 20260506214545 | 66 | 268 | 7.0 | 12.2 | 0.00 | 0.00 | 0.00 | 18 | 1010.2 |
| 20260506214015 | 66 | 327 | 7.8 | 13.0 | 0.00 | 0.00 | 0.00 | 18 | 1010.3 |
| 20260506213518 | 66 | 308 | 8.7 | 14.8 | 0.00 | 0.00 | 0.00 | 18 | 1010.6 |
| 20260506213049 | 66 | 287 | 7.0 | 13.9 | 0.00 | 0.00 | 0.00 | 19 | 1010.3 |
| 20260506212520 | 65 | 197 | 5.2 | 14.8 | 0.00 | 0.00 | 0.00 | 18 | 1010.6 |
| 20260506212021 | 65 | 263 | 10.4 | 13.9 | 0.00 | 0.00 | 0.00 | 19 | 1010.8 |
| 20260506211904 | 64 | 302 | 1.7 | 13.0 | 0.00 | 0.00 | 0.00 | 19 | 1010.7 |
| 20260506211014 | 64 | 316 | 2.6 | 9.6 | 0.00 | 0.00 | 0.00 | 19 | 1010.9 |
| 20260506210515 | 64 | 314 | 1.7 | 13.0 | 0.00 | 0.00 | 0.00 | 19 | 1010.9 |
| 20260506210046 | 64 | 295 | 6.1 | 13.0 | 0.00 | 0.00 | 0.00 | 19 | 1011.0 |
| 20260506205520 | 64 | 316 | 7.0 | 11.3 | 0.00 | 0.00 | 0.00 | 18 | 1011.2 |
| 20260506205018 | 64 | 360 | 6.1 | 13.9 | 0.00 | 0.00 | 0.00 | 18 | 1011.3 |
| 20260506204546 | 63 | 309 | 7.8 | 13.9 | 0.00 | 0.00 | 0.00 | 18 | 1011.4 |
| 20260506204015 | 63 | 360 | 4.3 | 11.3 | 0.00 | 0.00 | 0.00 | 20 | 1011.3 |
| 20260506203516 | 62 | 300 | 7.0 | 12.2 | 0.00 | 0.00 | 0.00 | 19 | 1011.5 |
| 20260506203035 | 62 | 256 | 3.5 | 13.9 | 0.00 | 0.00 | 0.00 | 20 | 1011.6 |
| 20260506202520 | 62 | 261 | 4.3 | 13.9 | 0.00 | 0.00 | 0.00 | 20 | 1011.7 |
| 20260506202013 | 63 | 266 | 7.8 | 13.9 | 0.00 | 0.00 | 0.00 | 20 | 1011.7 |
| 20260506201552 | 62 | 221 | 7.0 | 12.2 | 0.00 | 0.00 | 0.00 | 21 | 1011.8 |
| 20260506201018 | 61 | 243 | 6.1 | 14.8 | 0.00 | 0.00 | 0.00 | 20 | 1011.8 |
| 20260506200517 | 61 | 287 | 6.1 | 14.8 | 0.00 | 0.00 | 0.00 | 20 | 1011.9 |
| 20260506200056 | 61 | 241 | 7.8 | 16.5 | 0.00 | 0.00 | 0.00 | 20 | 1012.0 |